Voltar ao catálogo

USA 446

AtivoMilitarVLEO
NORAD 62345·PAYLOAD·🇺🇸 United States

Lançado Dec 17, 2024 de Vandenberg Space Force Base

Loading…

Próximas Passagens (próximas 24 horas)

TLE

ObsoletoSource: Mike McCants

Época: Aug 16, 2026, 20:33 UTC

1 62345U 24243F   26228.85685397 0.00000000  00000-0  00000-0 0    09
2 62345  70.0220 129.7551 0002000 335.0812  24.9188 14.96713436    03

Acompanhe USA 446 em tempo real com AllMySat

Download on the App Store